Location: Olsztyn
(53.7767°N, 20.4765°E)
Time: 18:44:14
(UTC+02:00)

A-11 Canister half - Pass Details

Date: 20 January 2022
Orbit: 1513 x 1686 km, 47.2° (Epoch: 24 May)

Event Time Altitude Azimuth Distance (km) Brightness Sun altitude
Rises 18:08:03 0° 226° (SW) 4,721 12.5 -18.8°
Reaches altitude 10° 18:11:20 10° 219° (SW) 3,719 11.7 -19.2°
Maximum altitude 18:19:52 42° 153° (SSE) 2,054 9.5 -20.5°
Enters shadow 18:23:53 29° 106° (ESE) 2,516 9.6 -21.1°
